Tracking 29799 objects as of 10-Oct-2024
HD Live streaming from Space Station
objects crossing your sky now

STARLINK-2511

Track STARLINK-2511 now!
10-day predictions
STARLINK-2511 is classified as:


NORAD ID: 48332
Int'l Code: 2021-036BJ
Perigee: 553.4 km
Apogee: 555.1 km
Inclination: 53.1 °
Period: 95.6 minutes
Semi major axis: 6925 km
RCS: Unknown
Launch date: April 29, 2021
Source: United States (US)
Launch site: AIR FORCE EASTERN TEST RANGE (AFETR)
Your satellite tracking list
Your tracking list is empty




NASA's NSSDC Master Catalog

Two Line Element Set (TLE):
1 48332U 21036BJ  24284.29406115  .00044868  00000-0  30083-2 0  9996
2 48332  53.0526 255.3204 0001212  98.9340 261.1786 15.06444918190354
Source of the keplerian elements: AFSPC